Year,Month,Day,Hour,Minute,Value (Times are PST for temperature in C)
2006,11,19,00,00,7.10
2006,11,19,00,01,7.10
2006,11,19,00,02,7.10
2006,11,19,00,03,7.10
2006,11,19,00,04,7.10
2006,11,19,00,05,7.10
2006,11,19,00,06,7.10
2006,11,19,00,07,7.10
2006,11,19,00,08,7.00
2006,11,19,00,09,7.00
2006,11,19,00,10,7.00
2006,11,19,00,11,6.90
2006,11,19,00,12,6.90
2006,11,19,00,13,6.90
2006,11,19,00,14,6.90
2006,11,19,00,15,7.00
2006,11,19,00,16,7.00
2006,11,19,00,17,7.10
2006,11,19,00,18,7.10
2006,11,19,00,19,7.10
2006,11,19,00,20,7.20
2006,11,19,00,21,7.20
2006,11,19,00,22,7.10
2006,11,19,00,23,7.10
2006,11,19,00,24,7.00
2006,11,19,00,25,6.90
2006,11,19,00,26,6.90
2006,11,19,00,27,6.80
2006,11,19,00,28,6.70
2006,11,19,00,29,6.70
2006,11,19,00,30,6.70
2006,11,19,00,31,6.70
2006,11,19,00,32,6.70
2006,11,19,00,33,6.60
2006,11,19,00,34,6.60
2006,11,19,00,35,6.60
2006,11,19,00,36,6.60
2006,11,19,00,37,6.50
2006,11,19,00,38,6.50
2006,11,19,00,39,6.40
2006,11,19,00,40,6.40
2006,11,19,00,41,6.40
2006,11,19,00,42,6.40
2006,11,19,00,43,6.40
2006,11,19,00,44,6.40
2006,11,19,00,45,6.40
2006,11,19,00,46,6.40
2006,11,19,00,47,6.40
2006,11,19,00,48,6.40
2006,11,19,00,49,6.40
2006,11,19,00,50,6.40
2006,11,19,00,51,6.40
2006,11,19,00,52,6.40
2006,11,19,00,53,6.40
2006,11,19,00,54,6.30
2006,11,19,00,55,6.30
2006,11,19,00,56,6.20
2006,11,19,00,57,6.20
2006,11,19,00,58,6.30
2006,11,19,00,59,6.30
2006,11,19,01,00,6.30
2006,11,19,01,01,6.30
2006,11,19,01,02,6.40
2006,11,19,01,03,6.40
2006,11,19,01,04,6.40
2006,11,19,01,05,6.30
2006,11,19,01,06,6.30
2006,11,19,01,07,6.30
2006,11,19,01,08,6.30
2006,11,19,01,09,6.30
2006,11,19,01,10,6.30
2006,11,19,01,11,6.30
2006,11,19,01,12,6.30
2006,11,19,01,13,6.30
2006,11,19,01,14,6.30
2006,11,19,01,15,6.30
2006,11,19,01,16,6.40
2006,11,19,01,17,6.40
2006,11,19,01,18,6.40
2006,11,19,01,19,6.40
2006,11,19,01,20,6.40
2006,11,19,01,21,6.40
2006,11,19,01,22,6.40
2006,11,19,01,23,6.40
2006,11,19,01,24,6.40
2006,11,19,01,25,6.40
2006,11,19,01,26,6.40
2006,11,19,01,27,6.50
2006,11,19,01,28,6.50
2006,11,19,01,29,6.50
2006,11,19,01,30,6.50
2006,11,19,01,31,6.50
2006,11,19,01,32,6.50
2006,11,19,01,33,6.40
2006,11,19,01,34,6.40
2006,11,19,01,35,6.40
2006,11,19,01,36,6.50
2006,11,19,01,37,6.50
2006,11,19,01,38,6.50
2006,11,19,01,39,6.50
2006,11,19,01,40,6.50
2006,11,19,01,41,6.50
2006,11,19,01,42,6.50
2006,11,19,01,43,6.50
2006,11,19,01,44,6.50
2006,11,19,01,45,6.50
2006,11,19,01,46,6.60
2006,11,19,01,47,6.60
2006,11,19,01,48,6.60
2006,11,19,01,49,6.70
2006,11,19,01,50,6.60
2006,11,19,01,51,6.60
2006,11,19,01,52,6.60
2006,11,19,01,53,6.60
2006,11,19,01,54,6.50
2006,11,19,01,55,6.40
2006,11,19,01,56,6.40
2006,11,19,01,57,6.40
2006,11,19,01,58,6.40
2006,11,19,01,59,6.40
2006,11,19,02,00,6.40
2006,11,19,02,01,6.40
2006,11,19,02,02,6.40
2006,11,19,02,03,6.40
2006,11,19,02,04,6.40
2006,11,19,02,05,6.40
2006,11,19,02,06,6.40
2006,11,19,02,07,6.30
2006,11,19,02,08,6.30
2006,11,19,02,09,6.30
2006,11,19,02,10,6.30
2006,11,19,02,11,6.20
2006,11,19,02,12,6.20
2006,11,19,02,13,6.10
2006,11,19,02,14,6.10
2006,11,19,02,15,6.10
2006,11,19,02,16,6.00
2006,11,19,02,17,6.00
2006,11,19,02,18,6.00
2006,11,19,02,19,5.90
2006,11,19,02,20,5.90
2006,11,19,02,21,5.90
2006,11,19,02,22,5.90
2006,11,19,02,23,5.90
2006,11,19,02,24,5.90
2006,11,19,02,25,5.90
2006,11,19,02,26,5.90
2006,11,19,02,27,5.80
2006,11,19,02,28,5.80
2006,11,19,02,29,5.80
2006,11,19,02,30,5.80
2006,11,19,02,31,5.80
2006,11,19,02,32,5.80
2006,11,19,02,33,5.80
2006,11,19,02,34,5.80
2006,11,19,02,35,5.80
2006,11,19,02,36,5.80
2006,11,19,02,37,5.80
2006,11,19,02,38,5.80
2006,11,19,02,39,5.80
2006,11,19,02,40,5.80
2006,11,19,02,41,5.80
2006,11,19,02,42,5.80
2006,11,19,02,43,5.80
2006,11,19,02,44,5.80
2006,11,19,02,45,5.90
2006,11,19,02,46,5.90
2006,11,19,02,47,5.90
2006,11,19,02,48,6.00
2006,11,19,02,49,6.00
2006,11,19,02,50,6.00
2006,11,19,02,51,6.00
2006,11,19,02,52,6.00
2006,11,19,02,53,6.00
2006,11,19,02,54,6.00
2006,11,19,02,55,6.00
2006,11,19,02,56,6.00
2006,11,19,02,57,6.10
2006,11,19,02,58,6.10
2006,11,19,02,59,6.10
2006,11,19,03,00,6.10
2006,11,19,03,01,6.10
2006,11,19,03,02,6.10
2006,11,19,03,03,6.20
2006,11,19,03,04,6.20
2006,11,19,03,05,6.50
2006,11,19,03,06,6.70
2006,11,19,03,07,6.90
2006,11,19,03,08,7.20
2006,11,19,03,09,7.30
2006,11,19,03,10,7.50
2006,11,19,03,11,7.70
2006,11,19,03,12,7.80
2006,11,19,03,13,7.90
2006,11,19,03,14,7.90
2006,11,19,03,15,7.90
2006,11,19,03,16,7.90
2006,11,19,03,17,7.90
2006,11,19,03,18,7.90
2006,11,19,03,19,7.90
2006,11,19,03,20,7.80
2006,11,19,03,21,7.80
2006,11,19,03,22,7.80
2006,11,19,03,23,7.80
2006,11,19,03,24,7.80
2006,11,19,03,25,7.80
2006,11,19,03,26,7.90
2006,11,19,03,27,7.80
2006,11,19,03,28,7.90
2006,11,19,03,29,7.90
2006,11,19,03,30,7.90
2006,11,19,03,31,8.00
2006,11,19,03,32,8.10
2006,11,19,03,33,8.20
2006,11,19,03,34,8.20
2006,11,19,03,35,8.20
2006,11,19,03,36,8.30
2006,11,19,03,37,8.30
2006,11,19,03,38,8.40
2006,11,19,03,39,8.50
2006,11,19,03,40,8.50
2006,11,19,03,41,8.60
2006,11,19,03,42,8.70
2006,11,19,03,43,8.80
2006,11,19,03,44,8.90
2006,11,19,03,45,9.10
2006,11,19,03,46,9.20
2006,11,19,03,47,9.30
2006,11,19,03,48,9.40
2006,11,19,03,49,9.40
2006,11,19,03,50,9.50
2006,11,19,03,51,9.50
2006,11,19,03,52,9.60
2006,11,19,03,53,9.70
2006,11,19,03,54,9.80
2006,11,19,03,55,9.80
2006,11,19,03,56,9.90
2006,11,19,03,57,9.90
2006,11,19,03,58,10.00
2006,11,19,03,59,10.00
2006,11,19,04,00,10.10
2006,11,19,04,01,10.10
2006,11,19,04,02,10.10
2006,11,19,04,03,10.10
2006,11,19,04,04,10.10
2006,11,19,04,05,10.10
2006,11,19,04,06,10.00
2006,11,19,04,07,10.00
2006,11,19,04,08,10.00
2006,11,19,04,09,9.90
2006,11,19,04,10,9.90
2006,11,19,04,11,9.90
2006,11,19,04,12,9.90
2006,11,19,04,13,9.80
2006,11,19,04,14,9.80
2006,11,19,04,15,9.80
2006,11,19,04,16,9.80
2006,11,19,04,17,9.70
2006,11,19,04,18,9.60
2006,11,19,04,19,9.60
2006,11,19,04,20,9.50
2006,11,19,04,21,9.50
2006,11,19,04,22,9.50
2006,11,19,04,23,9.40
2006,11,19,04,24,9.30
2006,11,19,04,25,9.20
2006,11,19,04,26,9.20
2006,11,19,04,27,9.10
2006,11,19,04,28,9.10
2006,11,19,04,29,9.00
2006,11,19,04,30,9.00
2006,11,19,04,31,9.00
2006,11,19,04,32,8.90
2006,11,19,04,33,8.80
2006,11,19,04,34,8.80
2006,11,19,04,35,8.80
2006,11,19,04,36,8.80
2006,11,19,04,37,8.80
2006,11,19,04,38,8.80
2006,11,19,04,39,8.80
2006,11,19,04,40,9.00
2006,11,19,04,41,9.10
2006,11,19,04,42,9.10
2006,11,19,04,43,9.10
2006,11,19,04,44,9.10
2006,11,19,04,45,9.10
2006,11,19,04,46,9.10
2006,11,19,04,47,9.10
2006,11,19,04,48,9.10
2006,11,19,04,49,9.10
2006,11,19,04,50,9.10
2006,11,19,04,51,9.10
2006,11,19,04,52,9.10
2006,11,19,04,53,9.00
2006,11,19,04,54,9.00
2006,11,19,04,55,9.00
2006,11,19,04,56,8.90
2006,11,19,04,57,8.90
2006,11,19,04,58,8.90
2006,11,19,04,59,8.90
2006,11,19,05,00,8.80
2006,11,19,05,01,8.80
2006,11,19,05,02,8.80
2006,11,19,05,03,8.70
2006,11,19,05,04,8.70
2006,11,19,05,05,8.70
2006,11,19,05,06,8.70
2006,11,19,05,07,8.70
2006,11,19,05,08,8.80
2006,11,19,05,09,8.90
2006,11,19,05,10,9.00
2006,11,19,05,11,9.10
2006,11,19,05,12,9.20
2006,11,19,05,13,9.20
2006,11,19,05,14,9.50
2006,11,19,05,15,9.90
2006,11,19,05,16,10.20
2006,11,19,05,17,10.30
2006,11,19,05,18,10.30
2006,11,19,05,19,10.30
2006,11,19,05,20,10.30
2006,11,19,05,21,10.20
2006,11,19,05,22,10.20
2006,11,19,05,23,10.20
2006,11,19,05,24,10.20
2006,11,19,05,25,10.10
2006,11,19,05,26,10.10
2006,11,19,05,27,10.10
2006,11,19,05,28,10.10
2006,11,19,05,29,10.20
2006,11,19,05,30,10.50
2006,11,19,05,31,10.80
2006,11,19,05,32,11.10
2006,11,19,05,33,11.40
2006,11,19,05,34,11.50
2006,11,19,05,35,11.70
2006,11,19,05,36,11.80
2006,11,19,05,37,11.90
2006,11,19,05,38,12.00
2006,11,19,05,39,12.10
2006,11,19,05,40,12.20
2006,11,19,05,41,12.20
2006,11,19,05,42,12.20
2006,11,19,05,43,12.20
2006,11,19,05,44,12.20
2006,11,19,05,45,12.10
2006,11,19,05,46,12.10
2006,11,19,05,47,12.10
2006,11,19,05,48,12.00
2006,11,19,05,49,12.00
2006,11,19,05,50,12.00
2006,11,19,05,51,12.00
2006,11,19,05,52,11.90
2006,11,19,05,53,12.00
2006,11,19,05,54,12.00
2006,11,19,05,55,12.00
2006,11,19,05,56,12.00
2006,11,19,05,57,12.00
2006,11,19,05,58,11.90
2006,11,19,05,59,11.90
2006,11,19,06,00,11.90
2006,11,19,06,01,11.90
2006,11,19,06,02,11.90
2006,11,19,06,03,11.90
2006,11,19,06,04,11.90
2006,11,19,06,05,12.00
2006,11,19,06,06,12.00
2006,11,19,06,07,12.00
2006,11,19,06,08,12.00
2006,11,19,06,09,12.00
2006,11,19,06,10,12.00
2006,11,19,06,11,12.00
2006,11,19,06,12,12.10
2006,11,19,06,13,12.10
2006,11,19,06,14,12.10
2006,11,19,06,15,12.10
2006,11,19,06,16,12.10
2006,11,19,06,17,12.10
2006,11,19,06,18,12.10
2006,11,19,06,19,12.10
2006,11,19,06,20,12.10
2006,11,19,06,21,12.10
2006,11,19,06,22,12.10
2006,11,19,06,23,12.10
2006,11,19,06,24,12.10
2006,11,19,06,25,12.10
2006,11,19,06,26,12.10
2006,11,19,06,27,12.20
2006,11,19,06,28,12.20
2006,11,19,06,29,12.20
2006,11,19,06,30,12.20
2006,11,19,06,31,12.20
2006,11,19,06,32,12.20
2006,11,19,06,33,12.10
2006,11,19,06,34,12.10
2006,11,19,06,35,12.10
2006,11,19,06,36,12.10
2006,11,19,06,37,12.10
2006,11,19,06,38,12.10
2006,11,19,06,39,12.00
2006,11,19,06,40,12.00
2006,11,19,06,41,11.90
2006,11,19,06,42,11.90
2006,11,19,06,43,11.80
2006,11,19,06,44,11.80
2006,11,19,06,45,11.80
2006,11,19,06,46,11.70
2006,11,19,06,47,11.70
2006,11,19,06,48,11.70
2006,11,19,06,49,11.60
2006,11,19,06,50,11.60
2006,11,19,06,51,11.50
2006,11,19,06,52,11.50
2006,11,19,06,53,11.40
2006,11,19,06,54,11.40
2006,11,19,06,55,11.40
2006,11,19,06,56,11.40
2006,11,19,06,57,11.30
2006,11,19,06,58,11.30
2006,11,19,06,59,11.30
2006,11,19,07,00,11.30
2006,11,19,07,01,11.20
2006,11,19,07,02,11.20
2006,11,19,07,03,11.20
2006,11,19,07,04,11.20
2006,11,19,07,05,11.20
2006,11,19,07,06,11.20
2006,11,19,07,07,11.20
2006,11,19,07,08,11.20
2006,11,19,07,09,11.20
2006,11,19,07,10,11.30
2006,11,19,07,11,11.30
2006,11,19,07,12,11.30
2006,11,19,07,13,11.30
2006,11,19,07,14,11.30
2006,11,19,07,15,11.30
2006,11,19,07,16,11.30
2006,11,19,07,17,11.30
2006,11,19,07,18,11.30
2006,11,19,07,19,11.30
2006,11,19,07,20,11.30
2006,11,19,07,21,11.30
2006,11,19,07,22,11.30
2006,11,19,07,23,11.30
2006,11,19,07,24,11.30
2006,11,19,07,25,11.30
2006,11,19,07,26,11.20
2006,11,19,07,27,11.20
2006,11,19,07,28,11.20
2006,11,19,07,29,11.20
2006,11,19,07,30,11.20
2006,11,19,07,31,11.20
2006,11,19,07,32,11.20
2006,11,19,07,33,11.20
2006,11,19,07,34,11.20
2006,11,19,07,35,11.20
2006,11,19,07,36,11.20
2006,11,19,07,37,11.30
2006,11,19,07,38,11.30
2006,11,19,07,39,11.20
2006,11,19,07,40,11.30
2006,11,19,07,41,11.20
2006,11,19,07,42,11.20
2006,11,19,07,43,11.20
2006,11,19,07,44,11.30
2006,11,19,07,45,11.30
2006,11,19,07,46,11.30
2006,11,19,07,47,11.40
2006,11,19,07,48,11.40
2006,11,19,07,49,11.50
2006,11,19,07,50,11.50
2006,11,19,07,51,11.60
2006,11,19,07,52,11.60
2006,11,19,07,53,11.60
2006,11,19,07,54,11.60
2006,11,19,07,55,11.60
2006,11,19,07,56,11.70
2006,11,19,07,57,11.60
2006,11,19,07,58,11.60
2006,11,19,07,59,11.60
2006,11,19,08,00,11.60
2006,11,19,08,01,11.60
2006,11,19,08,02,11.60
2006,11,19,08,03,11.60
2006,11,19,08,04,11.60
2006,11,19,08,05,11.50
2006,11,19,08,06,11.50
2006,11,19,08,07,11.50
2006,11,19,08,08,11.50
2006,11,19,08,09,11.50
2006,11,19,08,10,11.50
2006,11,19,08,11,11.50
2006,11,19,08,12,11.50
2006,11,19,08,13,11.50
2006,11,19,08,14,11.50
2006,11,19,08,15,11.50
2006,11,19,08,16,11.50
2006,11,19,08,17,11.40
2006,11,19,08,18,11.40
2006,11,19,08,19,11.40
2006,11,19,08,20,11.40
2006,11,19,08,21,11.40
2006,11,19,08,22,11.40
2006,11,19,08,23,11.40
2006,11,19,08,24,11.40
2006,11,19,08,25,11.40
2006,11,19,08,26,11.40
2006,11,19,08,27,11.40
2006,11,19,08,28,11.40
2006,11,19,08,29,11.40
2006,11,19,08,30,11.30
2006,11,19,08,31,11.30
2006,11,19,08,32,11.30
2006,11,19,08,33,11.30
2006,11,19,08,34,11.30
2006,11,19,08,35,11.30
2006,11,19,08,36,11.20
2006,11,19,08,37,11.30
2006,11,19,08,38,11.30
2006,11,19,08,39,11.30
2006,11,19,08,40,11.30
2006,11,19,08,41,11.40
2006,11,19,08,42,11.40
2006,11,19,08,43,11.50
2006,11,19,08,44,11.50
2006,11,19,08,45,11.50
2006,11,19,08,46,11.50
2006,11,19,08,47,11.50
2006,11,19,08,48,11.60
2006,11,19,08,49,11.60
2006,11,19,08,50,11.50
2006,11,19,08,51,11.50
2006,11,19,08,52,11.50
2006,11,19,08,53,11.50
2006,11,19,08,54,11.50
2006,11,19,08,55,11.50
2006,11,19,08,56,11.50
2006,11,19,08,57,11.50
2006,11,19,08,58,11.50
2006,11,19,08,59,11.50
2006,11,19,09,00,11.50
2006,11,19,09,01,11.50
2006,11,19,09,02,11.50
2006,11,19,09,03,11.60
2006,11,19,09,04,11.60
2006,11,19,09,05,11.50
2006,11,19,09,06,11.50
2006,11,19,09,07,11.60
2006,11,19,09,08,11.60
2006,11,19,09,09,11.60
2006,11,19,09,10,11.60
2006,11,19,09,11,11.60
2006,11,19,09,12,11.70
2006,11,19,09,13,11.70
2006,11,19,09,14,11.70
2006,11,19,09,15,11.70
2006,11,19,09,16,11.70
2006,11,19,09,17,11.70
2006,11,19,09,18,11.70
2006,11,19,09,19,11.70
2006,11,19,09,20,11.70
2006,11,19,09,21,11.70
2006,11,19,09,22,11.70
2006,11,19,09,23,11.70
2006,11,19,09,24,11.70
2006,11,19,09,25,11.70
2006,11,19,09,26,11.80
2006,11,19,09,27,11.80
2006,11,19,09,28,11.80
2006,11,19,09,29,11.90
2006,11,19,09,30,11.90
2006,11,19,09,31,11.90
2006,11,19,09,32,11.90
2006,11,19,09,33,11.90
2006,11,19,09,34,11.90
2006,11,19,09,35,11.90
2006,11,19,09,36,11.90
2006,11,19,09,37,11.90
2006,11,19,09,38,11.90
2006,11,19,09,39,11.90
2006,11,19,09,40,11.80
2006,11,19,09,41,11.80
2006,11,19,09,42,11.80
2006,11,19,09,43,11.80
2006,11,19,09,44,11.80
2006,11,19,09,45,11.80
2006,11,19,09,46,11.80
2006,11,19,09,47,11.70
2006,11,19,09,48,11.70
2006,11,19,09,49,11.70
2006,11,19,09,50,11.70
2006,11,19,09,51,11.70
2006,11,19,09,52,11.60
2006,11,19,09,53,11.60
2006,11,19,09,54,11.60
2006,11,19,09,55,11.60
2006,11,19,09,56,11.60
2006,11,19,09,57,11.60
2006,11,19,09,58,11.60
2006,11,19,09,59,11.60
2006,11,19,10,00,11.60
2006,11,19,10,01,11.60
2006,11,19,10,02,11.60
2006,11,19,10,03,11.60
2006,11,19,10,04,11.60
2006,11,19,10,05,11.60
2006,11,19,10,06,11.60
2006,11,19,10,07,11.60
2006,11,19,10,08,11.60
2006,11,19,10,09,11.60
2006,11,19,10,10,11.60
2006,11,19,10,11,11.50
2006,11,19,10,12,11.50
2006,11,19,10,13,11.50
2006,11,19,10,14,11.50
2006,11,19,10,15,11.50
2006,11,19,10,16,11.40
2006,11,19,10,17,11.40
2006,11,19,10,18,11.40
2006,11,19,10,19,11.30
2006,11,19,10,20,11.30
2006,11,19,10,21,11.20
2006,11,19,10,22,11.10
2006,11,19,10,23,11.00
2006,11,19,10,24,10.90
2006,11,19,10,25,10.80
2006,11,19,10,26,10.70
2006,11,19,10,27,10.60
2006,11,19,10,28,10.60
2006,11,19,10,29,10.50
2006,11,19,10,30,10.50
2006,11,19,10,31,10.40
2006,11,19,10,32,10.40
2006,11,19,10,33,10.40
2006,11,19,10,34,10.40
2006,11,19,10,35,10.40
2006,11,19,10,36,10.40
2006,11,19,10,37,10.50
2006,11,19,10,38,10.60
2006,11,19,10,39,10.60
2006,11,19,10,40,10.70
2006,11,19,10,41,10.90
2006,11,19,10,42,11.10
2006,11,19,10,43,11.30
2006,11,19,10,44,11.50
2006,11,19,10,45,11.60
2006,11,19,10,46,11.70
2006,11,19,10,47,11.90
2006,11,19,10,48,12.00
2006,11,19,10,49,12.10
2006,11,19,10,50,12.20
2006,11,19,10,51,12.30
2006,11,19,10,52,12.30
2006,11,19,10,53,12.40
2006,11,19,10,54,12.40
2006,11,19,10,55,12.40
2006,11,19,10,56,12.40
2006,11,19,10,57,12.40
2006,11,19,10,58,12.40
2006,11,19,10,59,12.40
2006,11,19,11,00,12.40
2006,11,19,11,01,12.40
2006,11,19,11,02,12.40
2006,11,19,11,03,12.40
2006,11,19,11,04,12.50
2006,11,19,11,05,12.50
2006,11,19,11,06,12.60
2006,11,19,11,07,12.60
2006,11,19,11,08,12.60
2006,11,19,11,09,12.60
2006,11,19,11,10,12.60
2006,11,19,11,11,12.60
2006,11,19,11,12,12.60
2006,11,19,11,13,12.70
2006,11,19,11,14,12.70
2006,11,19,11,15,12.80
2006,11,19,11,16,12.80
2006,11,19,11,17,12.90
2006,11,19,11,18,12.90
2006,11,19,11,19,12.90
2006,11,19,11,20,12.90
2006,11,19,11,21,12.90
2006,11,19,11,22,12.90
2006,11,19,11,23,13.00
2006,11,19,11,24,13.00
2006,11,19,11,25,12.90
2006,11,19,11,26,12.90
2006,11,19,11,27,12.90
2006,11,19,11,28,12.90
2006,11,19,11,29,12.80
2006,11,19,11,30,12.80
2006,11,19,11,31,12.80
2006,11,19,11,32,12.80
2006,11,19,11,33,12.80
2006,11,19,11,34,12.80
2006,11,19,11,35,12.80
2006,11,19,11,36,12.80
2006,11,19,11,37,12.70
2006,11,19,11,38,12.70
2006,11,19,11,39,12.60
2006,11,19,11,40,12.60
2006,11,19,11,41,12.50
2006,11,19,11,42,12.50
2006,11,19,11,43,12.40
2006,11,19,11,44,12.40
2006,11,19,11,45,12.40
2006,11,19,11,46,12.40
2006,11,19,11,47,12.40
2006,11,19,11,48,12.40
2006,11,19,11,49,12.40
2006,11,19,11,50,12.40
2006,11,19,11,51,12.40
2006,11,19,11,52,12.40
2006,11,19,11,53,12.40
2006,11,19,11,54,12.40
2006,11,19,11,55,12.40
2006,11,19,11,56,12.40
2006,11,19,11,57,12.40
2006,11,19,11,58,12.40
2006,11,19,11,59,12.50
2006,11,19,12,00,12.50
2006,11,19,12,01,12.60
2006,11,19,12,02,12.60
2006,11,19,12,03,12.70
2006,11,19,12,04,12.70
2006,11,19,12,05,12.80
2006,11,19,12,06,12.80
2006,11,19,12,07,12.80
2006,11,19,12,08,12.80
2006,11,19,12,09,12.80
2006,11,19,12,10,12.80
2006,11,19,12,11,12.80
2006,11,19,12,12,12.80
2006,11,19,12,13,12.80
2006,11,19,12,14,12.80
2006,11,19,12,15,12.70
2006,11,19,12,16,12.70
2006,11,19,12,17,12.70
2006,11,19,12,18,12.70
2006,11,19,12,19,12.70
2006,11,19,12,20,12.70
2006,11,19,12,21,12.70
2006,11,19,12,22,12.60
2006,11,19,12,23,12.60
2006,11,19,12,24,12.60
2006,11,19,12,25,12.60
2006,11,19,12,26,12.60
2006,11,19,12,27,12.60
2006,11,19,12,28,12.60
2006,11,19,12,29,12.60
2006,11,19,12,30,12.60
2006,11,19,12,31,12.50
2006,11,19,12,32,12.50
2006,11,19,12,33,12.50
2006,11,19,12,34,12.50
2006,11,19,12,35,12.50
2006,11,19,12,36,12.60
2006,11,19,12,37,12.60
2006,11,19,12,38,12.60
2006,11,19,12,39,12.60
2006,11,19,12,40,12.60
2006,11,19,12,41,12.70
2006,11,19,12,42,12.70
2006,11,19,12,43,12.70
2006,11,19,12,44,12.70
2006,11,19,12,45,12.60
2006,11,19,12,46,12.60
2006,11,19,12,47,12.60
2006,11,19,12,48,12.60
2006,11,19,12,49,12.60
2006,11,19,12,50,12.60
2006,11,19,12,51,12.60
2006,11,19,12,52,12.60
2006,11,19,12,53,12.60
2006,11,19,12,54,12.60
2006,11,19,12,55,12.60
2006,11,19,12,56,12.60
2006,11,19,12,57,12.60
2006,11,19,12,58,12.70
2006,11,19,12,59,12.70
2006,11,19,13,00,12.70
2006,11,19,13,01,12.80
2006,11,19,13,02,12.80
2006,11,19,13,03,12.80
2006,11,19,13,04,12.80
2006,11,19,13,05,12.90
2006,11,19,13,06,12.90
2006,11,19,13,07,12.90
2006,11,19,13,08,12.90
2006,11,19,13,09,12.90
2006,11,19,13,10,12.90
2006,11,19,13,11,13.00
2006,11,19,13,12,13.00
2006,11,19,13,13,13.00
2006,11,19,13,14,13.00
2006,11,19,13,15,13.00
2006,11,19,13,16,12.90
2006,11,19,13,17,12.90
2006,11,19,13,18,12.90
2006,11,19,13,19,12.80
2006,11,19,13,20,12.80
2006,11,19,13,21,12.80
2006,11,19,13,22,12.70
2006,11,19,13,23,12.70
2006,11,19,13,24,12.60
2006,11,19,13,25,12.60
2006,11,19,13,26,12.50
2006,11,19,13,27,12.50
2006,11,19,13,28,12.40
2006,11,19,13,29,12.40
2006,11,19,13,30,12.30
2006,11,19,13,31,12.30
2006,11,19,13,32,12.30
2006,11,19,13,33,12.30
2006,11,19,13,34,12.30
2006,11,19,13,35,12.30
2006,11,19,13,36,12.30
2006,11,19,13,37,12.20
2006,11,19,13,38,12.20
2006,11,19,13,39,12.30
2006,11,19,13,40,12.30
2006,11,19,13,41,12.30
2006,11,19,13,42,12.30
2006,11,19,13,43,12.30
2006,11,19,13,44,12.30
2006,11,19,13,45,12.30
2006,11,19,13,46,12.40
2006,11,19,13,47,12.40
2006,11,19,13,48,12.40
2006,11,19,13,49,12.40
2006,11,19,13,50,12.40
2006,11,19,13,51,12.40
2006,11,19,13,52,12.50
2006,11,19,13,53,12.50
2006,11,19,13,54,12.50
2006,11,19,13,55,12.50
2006,11,19,13,56,12.50
2006,11,19,13,57,12.50
2006,11,19,13,58,12.50
2006,11,19,13,59,12.50
2006,11,19,14,00,12.60
2006,11,19,14,01,12.60
2006,11,19,14,02,12.60
2006,11,19,14,03,12.60
2006,11,19,14,04,12.60
2006,11,19,14,05,12.70
2006,11,19,14,06,12.70
2006,11,19,14,07,12.70
2006,11,19,14,08,12.60
2006,11,19,14,09,12.60
2006,11,19,14,10,12.60
2006,11,19,14,11,12.60
2006,11,19,14,12,12.60
2006,11,19,14,13,12.60
2006,11,19,14,14,12.50
2006,11,19,14,15,12.50
2006,11,19,14,16,12.40
2006,11,19,14,17,12.40
2006,11,19,14,18,12.40
2006,11,19,14,19,12.40
2006,11,19,14,20,12.30
2006,11,19,14,21,12.30
2006,11,19,14,22,12.30
2006,11,19,14,23,12.30
2006,11,19,14,24,12.20
2006,11,19,14,25,12.20
2006,11,19,14,26,12.20
2006,11,19,14,27,12.20
2006,11,19,14,28,12.20
2006,11,19,14,29,12.20
2006,11,19,14,30,12.20
2006,11,19,14,31,12.20
2006,11,19,14,32,12.20
2006,11,19,14,33,12.20
2006,11,19,14,34,12.10
2006,11,19,14,35,12.10
2006,11,19,14,36,12.00
2006,11,19,14,37,12.00
2006,11,19,14,38,12.00
2006,11,19,14,39,12.00
2006,11,19,14,40,12.10
2006,11,19,14,41,12.10
2006,11,19,14,42,12.10
2006,11,19,14,43,12.20
2006,11,19,14,44,12.20
2006,11,19,14,45,12.30
2006,11,19,14,46,12.30
2006,11,19,14,47,12.30
2006,11,19,14,48,12.30
2006,11,19,14,49,12.30
2006,11,19,14,50,12.20
2006,11,19,14,51,12.20
2006,11,19,14,52,12.10
2006,11,19,14,53,12.10
2006,11,19,14,54,12.10
2006,11,19,14,55,12.00
2006,11,19,14,56,12.00
2006,11,19,14,57,12.00
2006,11,19,14,58,12.00
2006,11,19,14,59,12.00
2006,11,19,15,00,12.00
2006,11,19,15,01,11.90
2006,11,19,15,02,11.90
2006,11,19,15,03,11.90
2006,11,19,15,04,11.90
2006,11,19,15,05,11.80
2006,11,19,15,06,11.80
2006,11,19,15,07,11.80
2006,11,19,15,08,11.80
2006,11,19,15,09,11.80
2006,11,19,15,10,11.70
2006,11,19,15,11,11.70
2006,11,19,15,12,11.70
2006,11,19,15,13,11.70
2006,11,19,15,14,11.70
2006,11,19,15,15,11.60
2006,11,19,15,16,11.60
2006,11,19,15,17,11.60
2006,11,19,15,18,11.50
2006,11,19,15,19,11.50
2006,11,19,15,20,11.40
2006,11,19,15,21,11.40
2006,11,19,15,22,11.40
2006,11,19,15,23,11.30
2006,11,19,15,24,11.30
2006,11,19,15,25,11.30
2006,11,19,15,26,11.30
2006,11,19,15,27,11.30
2006,11,19,15,28,11.30
2006,11,19,15,29,11.30
2006,11,19,15,30,11.30
2006,11,19,15,31,11.20
2006,11,19,15,32,11.20
2006,11,19,15,33,11.20
2006,11,19,15,34,11.20
2006,11,19,15,35,11.20
2006,11,19,15,36,11.10
2006,11,19,15,37,11.10
2006,11,19,15,38,11.00
2006,11,19,15,39,11.00
2006,11,19,15,40,10.90
2006,11,19,15,41,10.90
2006,11,19,15,42,10.90
2006,11,19,15,43,10.90
2006,11,19,15,44,10.80
2006,11,19,15,45,10.80
2006,11,19,15,46,10.70
2006,11,19,15,47,10.70
2006,11,19,15,48,10.70
2006,11,19,15,49,10.70
2006,11,19,15,50,10.70
2006,11,19,15,51,10.70
2006,11,19,15,52,10.70
2006,11,19,15,53,10.70
2006,11,19,15,54,10.70
2006,11,19,15,55,10.70
2006,11,19,15,56,10.60
2006,11,19,15,57,10.60
2006,11,19,15,58,10.60
2006,11,19,15,59,10.50
2006,11,19,16,00,10.50
2006,11,19,16,01,10.40
2006,11,19,16,02,10.40
2006,11,19,16,03,10.40
2006,11,19,16,04,10.40
2006,11,19,16,05,10.30
2006,11,19,16,06,10.30
2006,11,19,16,07,10.30
2006,11,19,16,08,10.20
2006,11,19,16,09,10.20
2006,11,19,16,10,10.20
2006,11,19,16,11,10.10
2006,11,19,16,12,10.10
2006,11,19,16,13,10.10
2006,11,19,16,14,10.00
2006,11,19,16,15,10.00
2006,11,19,16,16,10.00
2006,11,19,16,17,9.90
2006,11,19,16,18,9.90
2006,11,19,16,19,9.90
2006,11,19,16,20,9.80
2006,11,19,16,21,9.80
2006,11,19,16,22,9.80
2006,11,19,16,23,9.80
2006,11,19,16,24,9.80
2006,11,19,16,25,9.70
2006,11,19,16,26,9.70
2006,11,19,16,27,9.70
2006,11,19,16,28,9.60
2006,11,19,16,29,9.60
2006,11,19,16,30,9.60
2006,11,19,16,31,9.50
2006,11,19,16,32,9.50
2006,11,19,16,33,9.50
2006,11,19,16,34,9.40
2006,11,19,16,35,9.40
2006,11,19,16,36,9.30
2006,11,19,16,37,9.30
2006,11,19,16,38,9.30
2006,11,19,16,39,9.20
2006,11,19,16,40,9.10
2006,11,19,16,41,9.10
2006,11,19,16,42,9.00
2006,11,19,16,43,8.90
2006,11,19,16,44,8.90
2006,11,19,16,45,8.80
2006,11,19,16,46,8.80
2006,11,19,16,47,8.70
2006,11,19,16,48,8.70
2006,11,19,16,49,8.70
2006,11,19,16,50,8.60
2006,11,19,16,51,8.60
2006,11,19,16,52,8.60
2006,11,19,16,53,8.60
2006,11,19,16,54,8.50
2006,11,19,16,55,8.40
2006,11,19,16,56,8.30
2006,11,19,16,57,8.20
2006,11,19,16,58,8.10
2006,11,19,16,59,8.00
2006,11,19,17,00,8.00
2006,11,19,17,01,7.90
2006,11,19,17,02,7.80
2006,11,19,17,03,7.70
2006,11,19,17,04,7.70
2006,11,19,17,05,7.60
2006,11,19,17,06,7.50
2006,11,19,17,07,7.50
2006,11,19,17,08,7.40
2006,11,19,17,09,7.40
2006,11,19,17,10,7.40
2006,11,19,17,11,7.40
2006,11,19,17,12,7.40
2006,11,19,17,13,7.30
2006,11,19,17,14,7.30
2006,11,19,17,15,7.20
2006,11,19,17,16,7.20
2006,11,19,17,17,7.20
2006,11,19,17,18,7.10
2006,11,19,17,19,7.00
2006,11,19,17,20,6.90
2006,11,19,17,21,6.90
2006,11,19,17,22,6.80
2006,11,19,17,23,6.80
2006,11,19,17,24,6.80
2006,11,19,17,25,6.70
2006,11,19,17,26,6.70
2006,11,19,17,27,6.60
2006,11,19,17,28,6.60
2006,11,19,17,29,6.60
2006,11,19,17,30,6.50
2006,11,19,17,31,6.50
2006,11,19,17,32,6.50
2006,11,19,17,33,6.50
2006,11,19,17,34,6.50
2006,11,19,17,35,6.50
2006,11,19,17,36,6.50